,,,PA_Meas_PMT16A,,PR_Meas_QMR101_102,,RH_Meas_QMH101,,SR_Meas_QMS101,,TA_Meas_QMH101,,GenWind,,GenWind,
date,time,status,PA,status,PR,status,RH,status,SR,status,TA,status,DirAvg,status,SpdAvg,
2011-08-12, 00:00:04,VALID,1000.13,VALID,0,VALID,75.0068,VALID,0,VALID,24.6965,VALID,176,VALID,1.83945,
2011-08-12, 00:01:04,VALID,1000.12,VALID,0,VALID,74.8237,VALID,0,VALID,24.6965,VALID,173,VALID,2.06914,
2011-08-12, 00:02:04,VALID,1000.11,VALID,0,VALID,74.8389,VALID,0,VALID,24.757,VALID,171,VALID,1.7918,
2011-08-12, 00:03:04,VALID,1000.13,VALID,0,VALID,75.106,VALID,0,VALID,24.716,VALID,172,VALID,1.70352,
2011-08-12, 00:04:04,VALID,1000.09,VALID,0,VALID,75.1441,VALID,0,VALID,24.7179,VALID,169,VALID,1.63281,
2011-08-12, 00:05:04,VALID,1000.11,VALID,0,VALID,75.2281,VALID,0,VALID,24.7179,VALID,185,VALID,1.60938,
2011-08-12, 00:06:04,VALID,1000.11,VALID,0,VALID,75.0526,VALID,0,VALID,24.677,VALID,186,VALID,1.82539,
2011-08-12, 00:07:04,VALID,1000.11,VALID,0,VALID,75.2128,VALID,0,VALID,24.7179,VALID,190,VALID,1.72852,
2011-08-12, 00:08:04,VALID,1000.07,VALID,0,VALID,75.3501,VALID,0,VALID,24.6789,VALID,188,VALID,1.78984,
2011-08-12, 00:09:04,VALID,1000.03,VALID,0,VALID,75.1823,VALID,0,VALID,24.6575,VALID,207,VALID,1.19609,
2011-08-12, 00:10:04,VALID,1000.03,VALID,0,VALID,75.0068,VALID,0,VALID,24.6184,VALID,194,VALID,1.78203,
2011-08-12, 00:11:04,VALID,1000.02,VALID,0,VALID,75.5332,VALID,0,VALID,24.6203,VALID,211,VALID,0.708984,
2011-08-12, 00:12:04,VALID,999.995,VALID,0,VALID,75.373,VALID,0,VALID,24.5404,VALID,210,VALID,1.01016,
2011-08-12, 00:13:04,VALID,999.981,VALID,0,VALID,75.7774,VALID,0,VALID,24.5209,VALID,215,VALID,0.998438,
2011-08-12, 00:14:04,VALID,999.95,VALID,0,VALID,75.518,VALID,0,VALID,24.4818,VALID,206,VALID,1.27734,
2011-08-12, 00:15:04,VALID,999.936,VALID,0,VALID,75.4569,VALID,0,VALID,24.4818,VALID,204,VALID,1.27578,
2011-08-12, 00:16:04,VALID,999.921,VALID,0,VALID,75.5714,VALID,0,VALID,24.4604,VALID,210,VALID,0.8875,
2011-08-12, 00:17:04,VALID,999.904,VALID,0,VALID,75.5256,VALID,0,VALID,24.5013,VALID,192,VALID,1.18906,
2011-08-12, 00:18:04,VALID,999.895,VALID,0,VALID,75.6172,VALID,0,VALID,24.5209,VALID,216,VALID,1.00742,
2011-08-12, 00:19:04,VALID,999.888,VALID,0,VALID,75.6782,VALID,0,VALID,24.4995,VALID,203,VALID,0.790234,
2011-08-12, 00:20:04,VALID,999.857,VALID,0,VALID,75.579,VALID,0,VALID,24.4818,VALID,195,VALID,1.33945,
2011-08-12, 00:21:04,VALID,999.848,VALID,0,VALID,75.5104,VALID,0,VALID,24.4409,VALID,206,VALID,1.14297,
2011-08-12, 00:22:04,VALID,999.855,VALID,0,VALID,75.7469,VALID,0,VALID,24.4818,VALID,210,VALID,0.731641,
2011-08-12, 00:23:04,VALID,999.842,VALID,0,VALID,75.5638,VALID,0,VALID,24.4214,VALID,183,VALID,0.686719,
2011-08-12, 00:24:04,VALID,999.811,VALID,0,VALID,75.2815,VALID,0.112286,VALID,24.4409,VALID,191,VALID,1.60352,
2011-08-12, 00:25:04,VALID,999.812,VALID,0,VALID,75.4569,VALID,0,VALID,24.48,VALID,210,VALID,0.921875,
2011-08-12, 00:26:04,VALID,999.75,VALID,0,VALID,75.1212,VALID,0.112286,VALID,24.4995,VALID,196,VALID,1.37461,
2011-08-12, 00:27:04,VALID,999.795,VALID,0,VALID,74.8466,VALID,0,VALID,24.5599,VALID,191,VALID,1.44609,
2011-08-12, 00:28:04,VALID,999.791,VALID,0,VALID,74.4727,VALID,0,VALID,24.558,VALID,194,VALID,1.06172,
2011-08-12, 00:29:04,VALID,999.788,VALID,0,VALID,74.8008,VALID,0,VALID,24.5775,VALID,181,VALID,1.14648,
2011-08-12, 00:30:04,VALID,999.777,VALID,0,VALID,74.8542,VALID,0.112286,VALID,24.5794,VALID,199,VALID,1.33438,
2011-08-12, 00:31:04,VALID,999.801,VALID,0,VALID,75.167,VALID,0,VALID,24.5794,VALID,195,VALID,1.06133,
2011-08-12, 00:32:04,VALID,999.793,VALID,0,VALID,74.5948,VALID,0,VALID,24.5775,VALID,198,VALID,1.38398,
2011-08-12, 00:33:04,VALID,999.78,VALID,0,VALID,74.5414,VALID,0,VALID,24.6184,VALID,209,VALID,1.58203,
2011-08-12, 00:34:04,VALID,999.791,VALID,0,VALID,74.6177,VALID,0,VALID,24.5971,VALID,202,VALID,1.4668,
2011-08-12, 00:35:04,VALID,999.781,VALID,0,VALID,74.5032,VALID,0,VALID,24.5971,VALID,190,VALID,1.19609,
2011-08-12, 00:36:04,VALID,999.789,VALID,0,VALID,74.2438,VALID,0,VALID,24.5989,VALID,204,VALID,1.36797,
2011-08-12, 00:37:04,VALID,999.772,VALID,0,VALID,74.5566,VALID,0,VALID,24.5989,VALID,228,VALID,1.37734,
2011-08-12, 00:38:04,VALID,999.787,VALID,0,VALID,75.0678,VALID,0,VALID,24.5404,VALID,230,VALID,1.03242,
2011-08-12, 00:39:04,VALID,999.761,VALID,0,VALID,75.1975,VALID,0,VALID,24.48,VALID,225,VALID,0.869531,
2011-08-12, 00:40:04,VALID,999.76,VALID,0,VALID,75.5256,VALID,0,VALID,24.4818,VALID,220,VALID,0.843359,
2011-08-12, 00:41:04,VALID,999.737,VALID,0,VALID,75.4722,VALID,0,VALID,24.4214,VALID,214,VALID,0.792969,
2011-08-12, 00:42:04,VALID,999.723,VALID,0,VALID,75.9605,VALID,0,VALID,24.4037,VALID,214,VALID,0.791797,
2011-08-12, 00:43:04,VALID,999.726,VALID,0,VALID,75.7011,VALID,0,VALID,24.3238,VALID,214,VALID,0.807422,
2011-08-12, 00:44:04,VALID,999.718,VALID,0,VALID,75.5332,VALID,0,VALID,24.3238,VALID,230,VALID,0.995313,
2011-08-12, 00:45:04,VALID,999.709,VALID,0,VALID,75.93,VALID,0,VALID,24.3452,VALID,220,VALID,0.834375,
2011-08-12, 00:46:04,VALID,999.696,VALID,0,VALID,75.6782,VALID,0,VALID,24.3238,VALID,223,VALID,0.998047,
2011-08-12, 00:47:04,VALID,999.71,VALID,0,VALID,75.579,VALID,0.112286,VALID,24.3238,VALID,225,VALID,1.25781,
2011-08-12, 00:48:04,VALID,999.69,VALID,0,VALID,75.579,VALID,0.112286,VALID,24.3238,VALID,222,VALID,1.16406,
2011-08-12, 00:49:04,VALID,999.722,VALID,0,VALID,75.6248,VALID,0,VALID,24.3433,VALID,214,VALID,0.937109,
2011-08-12, 00:50:04,VALID,999.681,VALID,0,VALID,75.9605,VALID,0.112286,VALID,24.3238,VALID,211,VALID,0.815625,
2011-08-12, 00:51:04,VALID,999.66,VALID,0,VALID,75.5409,VALID,0,VALID,24.3043,VALID,225,VALID,0.939453,
2011-08-12, 00:52:04,VALID,999.642,VALID,0,VALID,75.6629,VALID,0,VALID,24.3043,VALID,211,VALID,0.903125,
2011-08-12, 00:53:04,VALID,999.622,VALID,0,VALID,75.4035,VALID,0.112286,VALID,24.3629,VALID,203,VALID,1.04141,
2011-08-12, 00:54:04,VALID,999.604,VALID,0,VALID,74.5338,VALID,0,VALID,24.3824,VALID,186,VALID,1.41992,
2011-08-12, 00:55:04,VALID,999.594,VALID,0,VALID,75.2281,VALID,0,VALID,24.4214,VALID,198,VALID,1.05508,
2011-08-12, 00:56:04,VALID,999.563,VALID,0,VALID,74.6101,VALID,0,VALID,24.4409,VALID,175,VALID,1.75039,
2011-08-12, 00:57:04,VALID,999.591,VALID,0,VALID,74.6482,VALID,0,VALID,24.48,VALID,181,VALID,2.3418,
2011-08-12, 00:58:04,VALID,999.575,VALID,0,VALID,74.1141,VALID,0,VALID,24.5013,VALID,183,VALID,2.08281,
2011-08-12, 00:59:04,VALID,999.579,VALID,0,VALID,74.5338,VALID,0,VALID,24.4995,VALID,168,VALID,1.8793,
2011-08-12, 01:00:04,VALID,999.539,VALID,0,VALID,74.6253,VALID,0,VALID,24.4604,VALID,173,VALID,1.84375,
2011-08-12, 01:01:04,VALID,999.53,VALID,0,VALID,75.4264,VALID,0.112286,VALID,24.4019,VALID,157,VALID,1.51367,
2011-08-12, 01:02:04,VALID,999.532,VALID,0,VALID,75.7316,VALID,0,VALID,24.3452,VALID,150,VALID,1.54961,
2011-08-12, 01:03:04,VALID,999.536,VALID,0,VALID,76.2886,VALID,0.112286,VALID,24.2653,VALID,151,VALID,1.53047,
2011-08-12, 01:04:04,VALID,999.53,VALID,0,VALID,76.4488,VALID,0,VALID,24.2086,VALID,159,VALID,1.48359,
2011-08-12, 01:05:04,VALID,999.497,VALID,0,VALID,75.6858,VALID,0,VALID,24.1677,VALID,157,VALID,1.85547,
2011-08-12, 01:06:04,VALID,999.491,VALID,0,VALID,75.9834,VALID,0.112286,VALID,24.2067,VALID,132,VALID,1.80938,
2011-08-12, 01:07:04,VALID,999.451,VALID,0,VALID,75.8079,VALID,0,VALID,24.2067,VALID,127,VALID,1.55234,
2011-08-12, 01:08:04,VALID,999.428,VALID,0,VALID,74.6787,VALID,0,VALID,24.2263,VALID,128,VALID,2.20469,
2011-08-12, 01:09:04,VALID,999.437,VALID,0,VALID,75.167,VALID,0,VALID,24.3043,VALID,125,VALID,1.59063,
2011-08-12, 01:10:04,VALID,999.389,VALID,0,VALID,76.1741,VALID,0,VALID,24.3257,VALID,117,VALID,1.29688,
2011-08-12, 01:11:04,VALID,999.399,VALID,0,VALID,75.724,VALID,0.112286,VALID,24.2263,VALID,118,VALID,1.60742,
2011-08-12, 01:12:04,VALID,999.37,VALID,0,VALID,75.6629,VALID,0.112286,VALID,24.2067,VALID,125,VALID,1.68047,
2011-08-12, 01:13:04,VALID,999.352,VALID,0,VALID,75.9529,VALID,0,VALID,24.2263,VALID,119,VALID,1.32773,
2011-08-12, 01:14:04,VALID,999.344,VALID,0,VALID,76.342,VALID,0,VALID,24.2067,VALID,104,VALID,1.34297,
2011-08-12, 01:15:04,VALID,999.331,VALID,0,VALID,76.6624,VALID,0.112286,VALID,24.1677,VALID,100,VALID,1.18516,
2011-08-12, 01:16:04,VALID,999.278,VALID,0,VALID,76.9371,VALID,0,VALID,24.1305,VALID,99,VALID,1.4625,
2011-08-12, 01:17:04,VALID,999.272,VALID,0,VALID,77.166,VALID,0,VALID,24.111,VALID,89,VALID,1.25859,
2011-08-12, 01:18:04,VALID,999.254,VALID,0,VALID,77.6466,VALID,0,VALID,24.0915,VALID,103,VALID,1.15508,
2011-08-12, 01:19:04,VALID,999.243,VALID,0,VALID,77.845,VALID,0,VALID,24.0525,VALID,116,VALID,0.873828,
2011-08-12, 01:20:04,VALID,999.196,VALID,0,VALID,77.7458,VALID,0,VALID,24.0329,VALID,91,VALID,1.11758,
2011-08-12, 01:21:04,VALID,999.197,VALID,0,VALID,78.0663,VALID,0,VALID,23.9744,VALID,110,VALID,1.36484,
2011-08-12, 01:22:04,VALID,999.167,VALID,0,VALID,78.524,VALID,0,VALID,23.9354,VALID,116,VALID,1.44023,
2011-08-12, 01:23:04,VALID,999.148,VALID,0,VALID,78.814,VALID,0,VALID,23.8963,VALID,113,VALID,1.07891,
2011-08-12, 01:24:04,VALID,999.111,VALID,0,VALID,78.3791,VALID,0,VALID,23.8768,VALID,134,VALID,1.79727,
2011-08-12, 01:25:04,VALID,999.102,VALID,0,VALID,77.5704,VALID,0,VALID,23.9159,VALID,143,VALID,2.22852,
2011-08-12, 01:26:04,VALID,999.081,VALID,0,VALID,77.1736,VALID,0,VALID,24.0134,VALID,146,VALID,2.03984,
2011-08-12, 01:27:05,VALID,999.054,VALID,0,VALID,76.8226,VALID,0,VALID,24.1128,VALID,153,VALID,1.71797,
2011-08-12, 01:28:05,VALID,999.065,VALID,0,VALID,76.6319,VALID,0,VALID,24.15,VALID,139,VALID,1.59023,
2011-08-12, 01:29:05,VALID,999.037,VALID,0,VALID,76.5861,VALID,0,VALID,24.1696,VALID,138,VALID,1.36563,
2011-08-12, 01:30:05,VALID,999.008,VALID,0,VALID,76.1818,VALID,0,VALID,24.1909,VALID,134,VALID,1.66055,
2011-08-12, 01:31:05,VALID,998.996,VALID,0,VALID,76.3572,VALID,0,VALID,24.1891,VALID,124,VALID,1.28867,
2011-08-12, 01:32:05,VALID,998.968,VALID,0,VALID,76.3954,VALID,0,VALID,24.1696,VALID,130,VALID,1.73047,
2011-08-12, 01:33:05,VALID,998.967,VALID,0,VALID,76.2809,VALID,0.112286,VALID,24.1092,VALID,123,VALID,1.76914,
2011-08-12, 01:34:05,VALID,998.978,VALID,0,VALID,76.5098,VALID,0,VALID,24.1305,VALID,137,VALID,1.56406,
2011-08-12, 01:35:05,VALID,998.968,VALID,0,VALID,76.5404,VALID,0,VALID,24.0897,VALID,136,VALID,1.6168,
2011-08-12, 01:36:05,VALID,998.981,VALID,0,VALID,76.3649,VALID,0,VALID,24.0897,VALID,140,VALID,1.77734,
2011-08-12, 01:37:05,VALID,998.973,VALID,0,VALID,76.6548,VALID,0,VALID,24.111,VALID,143,VALID,1.23086,
2011-08-12, 01:38:05,VALID,998.952,VALID,0,VALID,76.1512,VALID,0,VALID,24.1092,VALID,127,VALID,1.61328,
2011-08-12, 01:39:05,VALID,998.957,VALID,0,VALID,76.0978,VALID,0.112286,VALID,24.1287,VALID,134,VALID,1.78906,
2011-08-12, 01:40:05,VALID,998.973,VALID,0,VALID,75.4951,VALID,0,VALID,24.1872,VALID,140,VALID,1.71484,
2011-08-12, 01:41:05,VALID,999.009,VALID,0,VALID,75.3883,VALID,0,VALID,24.2458,VALID,136,VALID,1.48438,
2011-08-12, 01:42:05,VALID,998.983,VALID,0,VALID,75.2509,VALID,0,VALID,24.2458,VALID,138,VALID,1.39648,
2011-08-12, 01:43:05,VALID,998.963,VALID,0,VALID,75.0373,VALID,0.112286,VALID,24.2866,VALID,146,VALID,1.51367,
2011-08-12, 01:44:05,VALID,998.969,VALID,0,VALID,74.9381,VALID,0,VALID,24.2866,VALID,142,VALID,1.54648,
2011-08-12, 01:45:05,VALID,998.959,VALID,0,VALID,74.5872,VALID,0,VALID,24.3043,VALID,146,VALID,1.46875,
2011-08-12, 01:46:05,VALID,998.97,VALID,0,VALID,74.9687,VALID,0,VALID,24.3062,VALID,160,VALID,1.11406,
2011-08-12, 01:47:05,VALID,998.937,VALID,0,VALID,74.6787,VALID,0,VALID,24.3257,VALID,157,VALID,1.20352,
2011-08-12, 01:48:05,VALID,998.941,VALID,0,VALID,74.5795,VALID,0,VALID,24.3647,VALID,153,VALID,1.37383,
2011-08-12, 01:49:05,VALID,998.946,VALID,0,VALID,74.4651,VALID,0,VALID,24.3647,VALID,151,VALID,1.01836,
2011-08-12, 01:50:05,VALID,998.939,VALID,0,VALID,74.5795,VALID,0,VALID,24.4056,VALID,149,VALID,1.00547,
2011-08-12, 01:51:05,VALID,998.955,VALID,0,VALID,74.7626,VALID,0,VALID,24.3842,VALID,157,VALID,1.34609,
2011-08-12, 01:52:05,VALID,998.938,VALID,0,VALID,74.488,VALID,0,VALID,24.4056,VALID,156,VALID,1.63086,
2011-08-12, 01:53:05,VALID,998.937,VALID,0,VALID,74.1904,VALID,0,VALID,24.4037,VALID,150,VALID,2.07383,
2011-08-12, 01:54:05,VALID,998.935,VALID,0,VALID,74.3049,VALID,0,VALID,24.4642,VALID,168,VALID,1.60508,
2011-08-12, 01:55:05,VALID,998.902,VALID,0,VALID,74.0684,VALID,0,VALID,24.4623,VALID,159,VALID,2.14258,
2011-08-12, 01:56:05,VALID,998.912,VALID,0,VALID,73.931,VALID,0,VALID,24.4818,VALID,169,VALID,2.03672,
2011-08-12, 01:57:05,VALID,998.88,VALID,0,VALID,74.2438,VALID,0,VALID,24.4818,VALID,154,VALID,1.87188,
2011-08-12, 01:58:05,VALID,998.883,VALID,0,VALID,74.7016,VALID,0,VALID,24.4623,VALID,142,VALID,1.22773,
2011-08-12, 01:59:05,VALID,998.882,VALID,0,VALID,74.4651,VALID,0,VALID,24.4233,VALID,153,VALID,1.89023,
2011-08-12, 02:00:05,VALID,998.871,VALID,0,VALID,74.5032,VALID,0,VALID,24.4037,VALID,145,VALID,1.79062,
2011-08-12, 02:01:05,VALID,998.862,VALID,0,VALID,74.4651,VALID,0,VALID,24.4233,VALID,154,VALID,1.45547,
2011-08-12, 02:02:05,VALID,998.833,VALID,0,VALID,74.9076,VALID,0,VALID,24.4019,VALID,140,VALID,1.22422,
2011-08-12, 02:03:05,VALID,998.823,VALID,0,VALID,75.0678,VALID,0,VALID,24.3629,VALID,147,VALID,1.29336,
2011-08-12, 02:04:05,VALID,998.819,VALID,0,VALID,75.4951,VALID,0,VALID,24.3238,VALID,138,VALID,1.16484,
2011-08-12, 02:05:05,VALID,998.769,VALID,0,VALID,75.4798,VALID,0,VALID,24.2653,VALID,140,VALID,1.71172,
2011-08-12, 02:06:05,VALID,998.761,VALID,0,VALID,75.9605,VALID,0,VALID,24.2671,VALID,154,VALID,1.06367,
2011-08-12, 02:07:05,VALID,998.764,VALID,0,VALID,76.0215,VALID,0.112286,VALID,24.2067,VALID,151,VALID,0.959766,
2011-08-12, 02:08:05,VALID,998.779,VALID,0,VALID,76.2199,VALID,0.112286,VALID,24.2067,VALID,143,VALID,1.11758,
2011-08-12, 02:09:05,VALID,998.757,VALID,0,VALID,76.0749,VALID,0,VALID,24.2067,VALID,147,VALID,1.24648,
2011-08-12, 02:10:05,VALID,998.768,VALID,0,VALID,75.9529,VALID,0.112286,VALID,24.2476,VALID,138,VALID,1.53555,
2011-08-12, 02:11:05,VALID,998.752,VALID,0,VALID,75.8537,VALID,0.112286,VALID,24.2458,VALID,147,VALID,1.39141,
2011-08-12, 02:12:05,VALID,998.736,VALID,0,VALID,75.9605,VALID,0,VALID,24.2866,VALID,131,VALID,1.32656,
2011-08-12, 02:13:05,VALID,998.732,VALID,0,VALID,76.2275,VALID,0,VALID,24.2263,VALID,138,VALID,0.982813,
2011-08-12, 02:14:05,VALID,998.744,VALID,0,VALID,76.2352,VALID,0,VALID,24.2086,VALID,138,VALID,1.29531,
2011-08-12, 02:15:05,VALID,998.718,VALID,0,VALID,76.4106,VALID,0,VALID,24.1891,VALID,135,VALID,1.64492,
2011-08-12, 02:16:05,VALID,998.721,VALID,0,VALID,76.4793,VALID,0,VALID,24.1696,VALID,125,VALID,1.42148,
2011-08-12, 02:17:05,VALID,998.746,VALID,0,VALID,76.7921,VALID,0,VALID,24.1696,VALID,125,VALID,1.04414,
2011-08-12, 02:18:05,VALID,998.746,VALID,0,VALID,77.2118,VALID,0,VALID,24.111,VALID,100,VALID,0.667969,
2011-08-12, 02:19:05,VALID,998.717,VALID,0,VALID,77.6238,VALID,0,VALID,24.072,VALID,100,VALID,0.371094,
2011-08-12, 02:20:05,VALID,998.718,VALID,0,VALID,77.8526,VALID,0,VALID,23.9939,VALID,100,VALID,0.392578,
2011-08-12, 02:21:05,VALID,998.763,VALID,0,VALID,78.0892,VALID,0,VALID,23.9744,VALID,112,VALID,0.672656,
2011-08-12, 02:22:05,VALID,998.739,VALID,0,VALID,77.8679,VALID,0,VALID,23.9354,VALID,131,VALID,1.17227,
2011-08-12, 02:23:05,VALID,998.743,VALID,0,VALID,77.9366,VALID,0,VALID,23.9159,VALID,117,VALID,0.784375,
2011-08-12, 02:24:05,VALID,998.765,VALID,0,VALID,77.9289,VALID,0,VALID,23.9159,VALID,117,VALID,0.376953,
2011-08-12, 02:25:05,VALID,998.776,VALID,0,VALID,77.9137,VALID,0,VALID,23.9159,VALID,117,VALID,0.595312,
2011-08-12, 02:26:05,VALID,998.8,VALID,0,VALID,77.8221,VALID,0,VALID,23.9159,VALID,136,VALID,0.908594,
2011-08-12, 02:27:05,VALID,998.799,VALID,0,VALID,77.7153,VALID,0,VALID,23.9354,VALID,146,VALID,1.22969,
2011-08-12, 02:28:05,VALID,998.813,VALID,0,VALID,77.4254,VALID,0,VALID,23.9744,VALID,144,VALID,1.07773,
2011-08-12, 02:29:05,VALID,998.806,VALID,0,VALID,77.494,VALID,0,VALID,23.9939,VALID,146,VALID,0.761719,
2011-08-12, 02:30:05,VALID,998.832,VALID,0,VALID,77.6009,VALID,0,VALID,24.0153,VALID,146,VALID,0.644531,
2011-08-12, 02:31:05,VALID,998.831,VALID,0,VALID,77.6466,VALID,0,VALID,24.0153,VALID,146,VALID,0.554688,
2011-08-12, 02:32:05,VALID,998.839,VALID,0,VALID,77.6085,VALID,0,VALID,23.9939,VALID,146,VALID,0.936328,
2011-08-12, 02:33:05,VALID,998.815,VALID,0,VALID,77.7229,VALID,0,VALID,23.9939,VALID,144,VALID,0.555859,
2011-08-12, 02:34:05,VALID,998.817,VALID,0,VALID,77.7229,VALID,0,VALID,23.9957,VALID,144,VALID,0.759766,
2011-08-12, 02:35:05,VALID,998.83,VALID,0,VALID,77.8145,VALID,0,VALID,23.9957,VALID,144,VALID,0.667188,
2011-08-12, 02:36:05,VALID,998.831,VALID,0,VALID,77.7687,VALID,0,VALID,23.9762,VALID,144,VALID,0.690234,
2011-08-12, 02:37:05,VALID,998.838,VALID,0,VALID,77.7077,VALID,0,VALID,23.9957,VALID,144,VALID,0.220703,
2011-08-12, 02:38:05,VALID,998.854,VALID,0,VALID,77.7382,VALID,0,VALID,23.9744,VALID,144,VALID,0.454297,
2011-08-12, 02:39:05,VALID,998.854,VALID,0,VALID,77.7535,VALID,0,VALID,23.9744,VALID,144,VALID,0.491797,
2011-08-12, 02:40:05,VALID,998.856,VALID,0,VALID,77.7458,VALID,0,VALID,23.9744,VALID,120,VALID,0.508594,
2011-08-12, 02:41:05,VALID,998.854,VALID,0,VALID,77.7077,VALID,0,VALID,23.9744,VALID,120,VALID,0.719141,
2011-08-12, 02:42:05,VALID,998.875,VALID,0,VALID,77.8526,VALID,0,VALID,23.9744,VALID,113,VALID,0.759766,
2011-08-12, 02:43:05,VALID,998.867,VALID,0,VALID,78.2494,VALID,0,VALID,23.9762,VALID,112,VALID,0.891797,
2011-08-12, 02:44:05,VALID,998.859,VALID,0,VALID,78.5393,VALID,0,VALID,23.9549,VALID,107,VALID,0.735547,
2011-08-12, 02:45:05,VALID,998.868,VALID,0,VALID,78.5317,VALID,0,VALID,23.9567,VALID,91,VALID,0.615234,
2011-08-12, 02:46:05,VALID,998.887,VALID,0,VALID,78.7453,VALID,0,VALID,23.9159,VALID,111,VALID,0.909766,
2011-08-12, 02:47:05,VALID,998.877,VALID,0,VALID,78.9971,VALID,0,VALID,23.8963,VALID,123,VALID,0.375391,
2011-08-12, 02:48:05,VALID,998.9,VALID,0,VALID,78.5775,VALID,0,VALID,23.8573,VALID,136,VALID,1.1582,
2011-08-12, 02:49:05,VALID,998.883,VALID,0,VALID,78.6385,VALID,0,VALID,23.8768,VALID,113,VALID,0.892578,
2011-08-12, 02:50:05,VALID,998.887,VALID,0,VALID,78.7987,VALID,0,VALID,23.8768,VALID,109,VALID,1.08008,
2011-08-12, 02:51:05,VALID,998.94,VALID,0,VALID,78.6614,VALID,0,VALID,23.8963,VALID,114,VALID,0.950781,
2011-08-12, 02:52:05,VALID,998.891,VALID,0,VALID,78.8292,VALID,0,VALID,23.8768,VALID,97,VALID,0.79375,
2011-08-12, 02:53:05,VALID,998.888,VALID,0,VALID,79.0734,VALID,0,VALID,23.8768,VALID,89,VALID,0.833594,
2011-08-12, 02:54:05,VALID,998.888,VALID,0,VALID,79.5693,VALID,0,VALID,23.8573,VALID,69,VALID,0.907422,
2011-08-12, 02:55:05,VALID,998.893,VALID,0,VALID,79.7524,VALID,0,VALID,23.8183,VALID,51,VALID,0.931641,
2011-08-12, 02:56:05,VALID,998.883,VALID,0,VALID,80.05,VALID,0,VALID,23.7402,VALID,45,VALID,0.939453,
2011-08-12, 02:57:05,VALID,998.88,VALID,0,VALID,80.5383,VALID,0,VALID,23.6817,VALID,42,VALID,0.936328,
2011-08-12, 02:58:05,VALID,998.891,VALID,0,VALID,80.9732,VALID,0,VALID,23.6232,VALID,30,VALID,0.672266,
2011-08-12, 02:59:05,VALID,998.869,VALID,0,VALID,81.7361,VALID,0,VALID,23.5061,VALID,26,VALID,1.16406,
2011-08-12, 03:00:05,VALID,998.883,VALID,0,VALID,82.2778,VALID,0,VALID,23.428,VALID,26,VALID,0.846875,
2011-08-12, 03:01:05,VALID,998.865,VALID,0,VALID,82.6898,VALID,0,VALID,23.3305,VALID,26,VALID,0.678906,
2011-08-12, 03:02:05,VALID,998.872,VALID,0,VALID,82.9492,VALID,0,VALID,23.2915,VALID,26,VALID,0.569531,
2011-08-12, 03:03:05,VALID,998.852,VALID,0,VALID,83.2468,VALID,0,VALID,23.2134,VALID,23,VALID,0.633203,
2011-08-12, 03:04:05,VALID,998.861,VALID,0,VALID,83.5596,VALID,0,VALID,23.1549,VALID,16,VALID,0.703906,
2011-08-12, 03:05:05,VALID,998.835,VALID,0,VALID,84.0632,VALID,0,VALID,23.0964,VALID,16,VALID,0.546484,
2011-08-12, 03:06:05,VALID,998.871,VALID,0,VALID,84.2844,VALID,0,VALID,23.0769,VALID,16,VALID,0.157031,
2011-08-12, 03:07:05,VALID,998.854,VALID,0,VALID,84.4904,VALID,0,VALID,23.0591,VALID,16,VALID,0.0617188,
2011-08-12, 03:08:05,VALID,998.865,VALID,0,VALID,84.8643,VALID,0,VALID,23.0378,VALID,16,VALID,0.203906,
2011-08-12, 03:09:05,VALID,998.852,VALID,0,VALID,84.994,VALID,0,VALID,23.0183,VALID,16,VALID,0.258984,
2011-08-12, 03:10:05,VALID,998.846,VALID,0,VALID,84.8643,VALID,0,VALID,23.0378,VALID,16,VALID,0,
2011-08-12, 03:11:05,VALID,998.837,VALID,0,VALID,84.8872,VALID,0,VALID,23.0183,VALID,16,VALID,0,
2011-08-12, 03:12:05,VALID,998.844,VALID,0,VALID,84.788,VALID,0,VALID,22.9988,VALID,16,VALID,0,
2011-08-12, 03:13:05,VALID,998.832,VALID,0,VALID,85.0626,VALID,0,VALID,22.9988,VALID,16,VALID,0.0175781,
2011-08-12, 03:14:05,VALID,998.806,VALID,0,VALID,85.261,VALID,0,VALID,22.9988,VALID,16,VALID,0.323047,
2011-08-12, 03:15:05,VALID,998.826,VALID,0,VALID,85.3602,VALID,0,VALID,22.9598,VALID,16,VALID,0.164063,
2011-08-12, 03:16:05,VALID,998.813,VALID,0,VALID,85.2763,VALID,0,VALID,22.9208,VALID,16,VALID,0.321875,
2011-08-12, 03:17:05,VALID,998.788,VALID,0,VALID,85.2152,VALID,0,VALID,22.942,VALID,16,VALID,0.558203,
2011-08-12, 03:18:05,VALID,998.793,VALID,0,VALID,85.2381,VALID,0,VALID,22.9615,VALID,27,VALID,0.635547,
2011-08-12, 03:19:05,VALID,998.802,VALID,0,VALID,85.406,VALID,0,VALID,22.9598,VALID,27,VALID,0.710547,
2011-08-12, 03:20:05,VALID,998.822,VALID,0,VALID,85.5586,VALID,0,VALID,22.9403,VALID,27,VALID,0.698828,
2011-08-12, 03:21:05,VALID,998.798,VALID,0,VALID,85.7798,VALID,0,VALID,22.9225,VALID,41,VALID,0.746875,
2011-08-12, 03:22:05,VALID,998.806,VALID,0,VALID,86.0163,VALID,0,VALID,22.903,VALID,41,VALID,1.11953,
2011-08-12, 03:23:05,VALID,998.763,VALID,0,VALID,86.3215,VALID,0,VALID,22.8232,VALID,41,VALID,0.729297,
2011-08-12, 03:24:05,VALID,998.76,VALID,0,VALID,86.5809,VALID,0,VALID,22.825,VALID,52,VALID,0.765234,
2011-08-12, 03:25:05,VALID,998.757,VALID,0,VALID,86.6725,VALID,0,VALID,22.786,VALID,53,VALID,0.610547,
2011-08-12, 03:26:05,VALID,998.738,VALID,0,VALID,86.7183,VALID,0,VALID,22.7274,VALID,59,VALID,0.957812,
2011-08-12, 03:27:05,VALID,998.737,VALID,0,VALID,86.8556,VALID,0,VALID,22.6689,VALID,55,VALID,0.963672,
2011-08-12, 03:28:05,VALID,998.748,VALID,0,VALID,87.0463,VALID,0,VALID,22.6087,VALID,55,VALID,0.657422,
2011-08-12, 03:29:05,VALID,998.723,VALID,0,VALID,87.2294,VALID,0,VALID,22.5909,VALID,55,VALID,0.622656,
2011-08-12, 03:30:05,VALID,998.744,VALID,0,VALID,87.4049,VALID,0,VALID,22.5696,VALID,55,VALID,0.312891,
2011-08-12, 03:31:05,VALID,998.714,VALID,0,VALID,87.5041,VALID,0,VALID,22.5323,VALID,55,VALID,0.339063,
2011-08-12, 03:32:05,VALID,998.692,VALID,0,VALID,87.6186,VALID,0,VALID,22.4738,VALID,55,VALID,0.256641,
2011-08-12, 03:33:05,VALID,998.743,VALID,0,VALID,87.7635,VALID,0,VALID,22.4543,VALID,55,VALID,0.140625,
2011-08-12, 03:34:05,VALID,998.714,VALID,0,VALID,87.939,VALID,0,VALID,22.4153,VALID,55,VALID,0.125,
2011-08-12, 03:35:05,VALID,998.766,VALID,0,VALID,88.0992,VALID,0,VALID,22.4153,VALID,55,VALID,0.120312,
2011-08-12, 03:36:05,VALID,998.763,VALID,0,VALID,88.1908,VALID,0,VALID,22.3763,VALID,55,VALID,0.278906,
2011-08-12, 03:37:05,VALID,998.785,VALID,0,VALID,88.4044,VALID,0,VALID,22.3763,VALID,55,VALID,0.368359,
2011-08-12, 03:38:05,VALID,998.788,VALID,0,VALID,88.5112,VALID,0,VALID,22.3958,VALID,55,VALID,0.371875,
2011-08-12, 03:39:05,VALID,998.778,VALID,0,VALID,88.5265,VALID,0,VALID,22.3746,VALID,55,VALID,0.296094,
2011-08-12, 03:40:05,VALID,998.787,VALID,0,VALID,88.4349,VALID,0,VALID,22.3551,VALID,55,VALID,0.407422,
2011-08-12, 03:41:05,VALID,998.758,VALID,0,VALID,88.4502,VALID,0,VALID,22.3568,VALID,55,VALID,0.347266,
2011-08-12, 03:42:05,VALID,998.759,VALID,0,VALID,88.5494,VALID,0,VALID,22.3356,VALID,103,VALID,1.11602,
2011-08-12, 03:43:05,VALID,998.797,VALID,0,VALID,88.2518,VALID,0,VALID,22.4153,VALID,126,VALID,1.01797,
2011-08-12, 03:44:05,VALID,998.773,VALID,0,VALID,87.4736,VALID,0,VALID,22.5714,VALID,138,VALID,1.25508,